Regional Weather Roundup
Issued by NWS Grand Forks, ND

Home | Current Version | Previous Version | Graphics & Text | Print | Product List | Glossary On
Versions: 1 2 3 4 5 6 7 8 9 10 11 12 13 14 15 16 17 18 19 20 21 22 23 24 25 26 27 28 29 30 31 32 33 34 35 36 37 38 39 40 41 42 43 44 45 46 47 48 49 50
000
ASUS43 KFGF 241831
RWRFGF
PRAIRIE TO PINES  WEATHER ROUNDUP
NATIONAL WEATHER SERVICE EASTERN NORTH DAKOTA/GRAND FORKS ND
100 PM CDT MON JUL 24 2017

 **SATELLITE DATA USED TO AUGMENT SKY COVER AT AUTOMATED STATIONS**
 *****  WEATHER ACROSS EASTERN NORTH DAKOTA  *****

CITY           SKY/WX    TMP DP  RH WIND       PRES   REMARKS
GRAND FORKS    FAIR      77  65  66 SE17      29.91F
6HR MIN TEMP:  62; 6HR MAX TEMP:  79;

GRAND FRKS AFB PTSUNNY   77  64  65 S17G24    29.91F
DEVILS LAKE    FAIR      79  62  56 S15G25    29.87F
6HR MIN TEMP:  65; 6HR MAX TEMP:  79;

FARGO          MOSUNNY   79  63  57 S14       29.94
WAHPETON ARPT  MOCLDY    75  63  64 S13       29.97S
$$

 ***** WEATHER ACROSS CENTRAL AND WESTERN NORTH DAKOTA  *****

CITY           SKY/WX    TMP DP  RH WIND       PRES   REMARKS
BISMARCK       FAIR      81  62  52 S9        29.85F
6HR MIN TEMP:  65; 6HR MAX TEMP:  81;

MINOT          FAIR      91  56  30 S21G30    29.77R
6HR MIN TEMP:  70; 6HR MAX TEMP:  91;

JAMESTOWN      FAIR      79  62  56 S15       29.90F
6HR MIN TEMP:  62; 6HR MAX TEMP:  80;

MINOT AFB      FAIR      90  57  32 S18       29.75S
GARRISON         N/A     86  60  41 S15       29.80S
WILLISTON      FAIR      92  52  25 SW12G18   29.76S
6HR MIN TEMP:  73; 6HR MAX TEMP:  92;

DICKINSON      FAIR      90  58  33 S13G23    29.81S
6HR MIN TEMP:  67; 6HR MAX TEMP:  90;

HETTINGER      FAIR      87  58  37 SE9G20    29.86F
6HR MIN TEMP:  68; 6HR MAX TEMP:  87;

$$

 *****  OTHER AIRPORT OBSERVATIONS IN OUR AREA  *****

CITY           SKY/WX    TMP DP  RH WIND       PRES   REMARKS
WALHALLA       NOT AVBL
GRAFTON AIRPOR FAIR      79  64  61 S16G24    29.90F
VALLEY CITY AR FAIR      77  63  61 S17G23    29.94F
CANDO          NOT AVBL
CAVALIER APRT  FAIR      77  66  69 S15G22    29.86F
GWINNER        CLEAR     79  64  61 S9        29.94S
SHEYENNE NWR     N/A     79  64  59 S12       29.95S
ROLLA            N/A     77  64  65 S15G21    29.84R
 ***** THE ABOVE OBSERVATIONS ARE NON NWS ARE NOT QUALITY
       CONTROLLED AND MAY MIS-REPORT RAIN FOR SNOW...
$$

  *****  WEATHER ACROSS NORTHERN MINNESOTA  *****

CITY           SKY/WX    TMP DP  RH WIND       PRES   REMARKS
FLAG ISLAND    FAIR      75  64  69 S13       29.95F
WARROAD        FAIR      75  66  73 S7        29.96F
ROSEAU         FAIR      79  66  65 S15       29.95S
HALLOCK        FAIR      79  66  65 S15G22    29.89F
THF RVR FALLS  PTSUNNY   76  62  62 S15       29.97F
6HR MIN TEMP:  64; 6HR MAX TEMP:  76;

BAUDETTE       FAIR      78  59  51 S10       29.98F
6HR MIN TEMP:  59; 6HR MAX TEMP:  78;

WASKISH        PTSUNNY   77  57  50 SE8       30.00F
CROOKSTON      FAIR      75  63  64 S16G22    29.94F
STEPHEN NDAWN    N/A     79  64  61 S14         N/A
GREENBUSH NDAW   N/A     77  63  61 S12         N/A
$$
  *****  WEATHER ACROSS CENTRAL AND WEST MINNESOTA  *****

CITY           SKY/WX    TMP DP  RH WIND       PRES   REMARKS
FOSSTON        FAIR      73  61  64 S9        29.99S
BEMIDJI        FAIR      75  58  54 S6        30.01F
PARK RAPIDS    FAIR      75  57  53 S8        30.02F
6HR MIN TEMP:  57; 6HR MAX TEMP:  75;

ELBOW LAKE     FAIR      74  62  68 E12G18    30.00S
6HR MIN TEMP:  59; 6HR MAX TEMP:  74;

WADENA         FAIR      73  57  56 S8        30.02F
DETROIT LAKES  FAIR      73  59  60 SE10      30.00F
MOORHEAD       FAIR      75  63  64 S15       29.96S
FERGUS FALLS   FAIR      75  61  60 SE13      29.98S
MORRIS MN      FAIR      79  61  53 SE12G17   29.98F
STAPLES        FAIR      73  57  56 SE5       30.03S
$$
  *****  WEATHER ELSEWHERE ACROSS MINNESOTA  *****

CITY           SKY/WX    TMP DP  RH WIND       PRES   REMARKS
DULUTH         FAIR      70  54  56 SE9       30.08F
6HR MIN TEMP:  53; 6HR MAX TEMP:  71;

INTRNTL FALLS  FAIR      76  53  44 S8        30.02F
6HR MIN TEMP:  58; 6HR MAX TEMP:  76;

ELY            FAIR      73  50  43 S6        30.06F
CLOQUET        FAIR      72  54  53 S7        30.07F
WHEATON        FAIR      75  63  64 SE9G16    29.98F
BRAINERD       FAIR      68  58  70 S3        30.05F
6HR MIN TEMP:  54; 6HR MAX TEMP:  70;

HIBBING        FAIR      72  51  47 VRB6      30.06F
6HR MIN TEMP:  47; 6HR MAX TEMP:  73;

ALEXANDRIA     FAIR      72  60  66 SE9       30.03F
6HR MIN TEMP:  60; 6HR MAX TEMP:  73;

SAINT CLOUD    PTSUNNY   73  61  65 VRB3      30.04F
6HR MIN TEMP:  55; 6HR MAX TEMP:  73;

MINNEAPOLIS    PTSUNNY   73  59  61 SE9       30.06S
6HR MIN TEMP:  62; 6HR MAX TEMP:  74;

$$

  *****  WEATHER ACROSS SOUTH DAKOTA  *****

CITY           SKY/WX    TMP DP  RH WIND       PRES   REMARKS
SIOUX FALLS    FAIR      79  66  64 S12       29.98F
6HR MIN TEMP:  59; 6HR MAX TEMP:  79;

BROOKINGS      FAIR      76  62  62 SE16      29.98F
WATERTOWN      FAIR      75  64  68 S10       29.96F
6HR MIN TEMP:  59; 6HR MAX TEMP:  76;

HURON          FAIR      81  64  56 SE16G24   29.91S
6HR MIN TEMP:  61; 6HR MAX TEMP:  81;

SISSETON         N/A     79  63  57 SE15      29.95F
ABERDEEN       FAIR      77  65  66 S12       29.92F
6HR MIN TEMP:  59; 6HR MAX TEMP:  77;

MITCHELL       FAIR      83  63  50 SE20G26   29.92F
PIERRE         FAIR      91  59  33 SE18      29.81F HX  90
6HR MIN TEMP:  67; 6HR MAX TEMP:  91;

MOBRIDGE       PTSUNNY   75  65  70 S15G23    29.83S
RAPID CITY     FAIR      91  54  28 VRB6      29.85F
6HR MIN TEMP:  63; 6HR MAX TEMP:  91;

$$

  *****  SOME WEATHER IN NEARBY STATES *****

CITY           SKY/WX    TMP DP  RH WIND       PRES   REMARKS
GLASGOW MT     FAIR      79  52  38 NW18G25   29.86S
6HR MIN TEMP:  69; 6HR MAX TEMP:  79;

GREAT FALLS MT FAIR      68  44  42 VRB3      29.97F
6HR MIN TEMP:  50; 6HR MAX TEMP:  69;

CHEYENNE WY    FAIR      90  29  11 NW12G17   30.13S
6HR MIN TEMP:  57; 6HR MAX TEMP:  92;

SCOTTSBLUFF NE FAIR      93  53  25 W5        29.95S HX  90
6HR MIN TEMP:  73; 6HR MAX TEMP:  94;

OMAHA NE       FAIR      82  62  50 S7        30.01F
6HR MIN TEMP:  63; 6HR MAX TEMP:  83;

DES MOINES IA  FAIR      80  59  48 VRB3      30.01F
6HR MIN TEMP:  65; 6HR MAX TEMP:  81;

DAVENPORT IA   CLOUDY    71  63  75 NE9       30.07S
6HR MIN TEMP:  65; 6HR MAX TEMP:  71;

CHICAGO IL     PTSUNNY   72  56  57 NE13      30.06R
6HR MIN TEMP:  66; 6HR MAX TEMP:  74;

EAU CLAIRE WI  FAIR      69  57  65 CALM      30.07F
6HR MIN TEMP:  57; 6HR MAX TEMP:  70;

LA CROSSE WI   PTSUNNY   72  58  61 SE7       30.08S
6HR MIN TEMP:  63; 6HR MAX TEMP:  72;

$$

  *****  SOME NATIONAL WEATHER *****

CITY           SKY/WX    TMP DP  RH WIND       PRES   REMARKS
LA GUARDIA NY  CLOUDY    66  61  84 N13       29.83R
6HR MIN TEMP:  64; 6HR MAX TEMP:  71; 6HR PCP:  0.45;

RALEIGH NC     PTSUNNY   89  69  51 W8        29.91F HX  93
6HR MIN TEMP:  73; 6HR MAX TEMP:  90;

ATLANTA GA     FAIR      88  72  58 SW7       29.98F HX  94
6HR MIN TEMP:  75; 6HR MAX TEMP:  90;

NEW ORLEANS LA CLOUDY    90  74  59 SW10      30.03R HX  99
6HR MIN TEMP:  80; 6HR MAX TEMP:  90;

OKLAHOMA CITY  FAIR      90  68  48 S10       29.99F HX  94
6HR MIN TEMP:  68; 6HR MAX TEMP:  91;

ALBUQUERQUE NM PTSUNNY   82  56  40 VRB3      30.19F
6HR MIN TEMP:  67; 6HR MAX TEMP:  82;

SALT LAKE CITY PTSUNNY   90  46  21 S7        30.01F
6HR MIN TEMP:  74; 6HR MAX TEMP:  90;

LOS ANGELES CA PTSUNNY   74  65  73 SW8       29.94S
6HR MIN TEMP:  68; 6HR M


USA.gov is the U.S. government's official web portal to all federal, state and local government web resources and services.